Find Starlink 37578

NORAD ID: 69451 Int'l Des: 2026-127 Owner: SPXS Country: US Constellation: starlink operational
LEOCIRCULAR

現在のビュー

3D地球を読み込み中...

About Starlink 37578

Starlink 37578 (NORAD 69451) is a starlink constellation satellite launched Jun 8, 2026 by SPXS of US. It operates in LEO, CIRCULAR orbit with a mass of 575.00 kg.

次回通過

Passes for default location (London). Set your location on the main map for personalized predictions.

高度履歴

Loading altitude history...

軌道要素

1 69451U 26127J 26206.58335648 .00078341 00000-0 14047-2 0 9992
2 69451 53.1594 72.4870 0000957 99.8163 279.2950 15.49264123 6006
Epoch: Jul 25, 2026 • Age: 20 hours

現在のステータス

高度 420.7 km
遠地点 / 近地点 N/A
速度 7.66 km/s
衛星直下点 34.98°N, 2.13°E
打ち上げ日 Jun 8, 2026
運用期間 0.1 years
タイプ internet

技術仕様

分類 Payload
質量 575.00 kg
乾燥質量 530.00 kg
総質量 575.00 kg
長さ 0.30 m
直径 4.10 m
スパン 29.00 m
形状 Box + pan
製造者 SPXS
バスタイプ Starlink V2MO
フェーズステータス In Orbit
所有者/国 SPXS/US

Most Searched